Time,TemperatureF,DewpointF,PressureIn,WindDirection,WindDirectionDegrees,WindSpeedMPH,WindSpeedGustMPH,Humidity,HourlyPrecipIn,Conditions,Clouds,dailyrainin,SoftwareType,DateUTC
2013-04-26 00:00:00,41.0,36.5,30.28,NNW,340,11.0,16.0,84,0.00,,,0.00,VWS V14.01,2013-04-26 04:00:00,
2013-04-26 00:01:00,41.2,36.4,30.28,NNW,344,9.0,15.0,83,0.00,,OVC040,0.00,VWS V14.01,2013-04-26 04:01:00,
2013-04-26 00:02:00,41.2,36.7,30.28,NNW,332,12.0,15.0,84,0.00,,OVC040,0.00,VWS V14.01,2013-04-26 04:02:00,
2013-04-26 00:07:00,41.0,36.5,30.28,North,360,11.0,11.0,84,0.00,,OVC040,0.00,VWS V14.01,2013-04-26 04:07:00,
2013-04-26 00:10:00,40.7,36.2,30.28,NNW,337,10.0,17.0,84,0.00,,,0.00,VWS V14.01,2013-04-26 04:10:00,
2013-04-26 00:12:00,40.8,36.7,30.28,NNW,331,13.0,17.0,85,0.00,,OVC040,0.00,VWS V14.01,2013-04-26 04:12:00,
2013-04-26 00:17:00,40.7,36.2,30.28,NW,315,8.0,11.0,84,0.00,,OVC040,0.00,VWS V14.01,2013-04-26 04:17:00,
2013-04-26 00:20:00,40.3,35.9,30.28,NNW,341,10.0,17.0,84,0.00,,,0.00,VWS V14.01,2013-04-26 04:20:00,
2013-04-26 00:22:00,40.6,36.2,30.28,NW,321,13.0,17.0,84,0.00,,OVC040,0.00,VWS V14.01,2013-04-26 04:22:00,
2013-04-26 00:27:00,40.3,35.9,30.28,NW,309,9.0,13.0,84,0.00,,OVC040,0.00,VWS V14.01,2013-04-26 04:27:00,
2013-04-26 00:30:00,40.2,35.5,30.29,NW,323,9.0,16.0,83,0.00,,,0.00,VWS V14.01,2013-04-26 04:30:00,
2013-04-26 00:32:00,40.2,35.5,30.28,NW,319,14.0,16.0,83,0.00,,OVC040,0.00,VWS V14.01,2013-04-26 04:32:00,
2013-04-26 00:38:00,40.2,35.5,30.29,NNW,333,7.0,9.0,83,0.00,,OVC040,0.00,VWS V14.01,2013-04-26 04:38:00,
2013-04-26 00:40:00,40.1,35.4,30.29,NNW,348,9.0,14.0,83,0.00,,,0.00,VWS V14.01,2013-04-26 04:40:00,
2013-04-26 00:43:00,40.1,35.1,30.29,NNW,327,7.0,14.0,82,0.00,,OVC040,0.00,VWS V14.01,2013-04-26 04:43:00,
2013-04-26 00:48:00,40.1,35.4,30.29,NNW,337,6.0,9.0,83,0.00,,OVC040,0.00,VWS V14.01,2013-04-26 04:48:00,
2013-04-26 00:50:00,40.0,35.0,30.29,NW,317,6.0,12.0,82,0.00,,,0.00,VWS V14.01,2013-04-26 04:50:00,
2013-04-26 00:53:00,40.0,35.3,30.29,NNW,327,6.0,12.0,83,0.00,,OVC040,0.00,VWS V14.01,2013-04-26 04:53:00,
2013-04-26 00:58:00,40.0,35.0,30.29,NNW,330,6.0,9.0,82,0.00,,OVC040,0.00,VWS V14.01,2013-04-26 04:58:00,
2013-04-26 01:00:00,40.0,34.7,30.29,NW,321,6.0,12.0,81,0.00,,,0.00,VWS V14.01,2013-04-26 05:00:00,
2013-04-26 01:03:00,40.0,35.0,30.29,NW,314,4.0,10.0,82,0.00,,OVC030,0.00,VWS V14.01,2013-04-26 05:03:00,
2013-04-26 01:08:00,40.0,34.7,30.29,NNW,329,7.0,9.0,81,0.00,,OVC030,0.00,VWS V14.01,2013-04-26 05:08:00,
2013-04-26 01:10:00,40.1,34.1,30.29,NW,304,6.0,12.0,79,0.00,,,0.00,VWS V14.01,2013-04-26 05:10:00,
2013-04-26 01:13:00,40.1,34.4,30.29,NNW,339,6.0,12.0,80,0.00,,OVC030,0.00,VWS V14.01,2013-04-26 05:13:00,
2013-04-26 01:18:00,40.1,34.1,30.29,NW,306,7.0,7.0,79,0.00,,OVC030,0.00,VWS V14.01,2013-04-26 05:18:00,
2013-04-26 01:20:00,40.2,33.6,30.28,WNW,295,5.0,13.0,77,0.00,,,0.00,VWS V14.01,2013-04-26 05:20:00,
2013-04-26 01:23:00,40.2,33.9,30.28,WNW,297,4.0,13.0,78,0.00,,OVC030,0.00,VWS V14.01,2013-04-26 05:23:00,
2013-04-26 01:28:00,40.2,33.6,30.28,WNW,295,5.0,7.0,77,0.00,,OVC030,0.00,VWS V14.01,2013-04-26 05:28:00,
2013-04-26 01:30:00,40.1,33.8,30.28,WNW,297,6.0,7.0,78,0.00,,,0.00,VWS V14.01,2013-04-26 05:30:00,
2013-04-26 01:33:00,40.2,33.9,30.28,WNW,296,5.0,7.0,78,0.00,,OVC030,0.00,VWS V14.01,2013-04-26 05:33:00,
2013-04-26 01:38:00,40.1,33.8,30.28,WNW,296,5.0,6.0,78,0.00,,OVC030,0.00,VWS V14.01,2013-04-26 05:38:00,
2013-04-26 01:40:00,40.0,33.4,30.28,NW,317,0.0,6.0,77,0.00,,,0.00,VWS V14.01,2013-04-26 05:40:00,
2013-04-26 01:43:00,40.0,33.7,30.28,NW,317,1.0,6.0,78,0.00,,OVC030,0.00,VWS V14.01,2013-04-26 05:43:00,
2013-04-26 01:48:00,40.0,33.4,30.28,NW,317,0.0,1.0,77,0.00,,OVC030,0.00,VWS V14.01,2013-04-26 05:48:00,
2013-04-26 01:50:00,39.9,33.3,30.28,NW,317,2.0,4.0,77,0.00,,,0.00,VWS V14.01,2013-04-26 05:50:00,
2013-04-26 01:53:00,39.9,33.3,30.28,NW,317,3.0,3.0,77,0.00,,OVC030,0.00,VWS V14.01,2013-04-26 05:53:00,
2013-04-26 01:58:00,39.9,33.0,30.28,NW,317,1.0,2.0,76,0.00,,OVC030,0.00,VWS V14.01,2013-04-26 05:58:00,
2013-04-26 02:00:00,39.4,32.8,30.28,NW,317,2.0,3.0,77,0.00,,,0.00,VWS V14.01,2013-04-26 06:00:00,
2013-04-26 02:03:00,39.7,33.1,30.28,NW,317,1.0,3.0,77,0.00,,OVC030,0.00,VWS V14.01,2013-04-26 06:03:00,
2013-04-26 02:08:00,39.3,32.7,30.28,NW,317,2.0,2.0,77,0.00,,OVC030,0.00,VWS V14.01,2013-04-26 06:08:00,
2013-04-26 02:10:00,39.3,32.7,30.28,NW,317,2.0,4.0,77,0.00,,,0.00,VWS V14.01,2013-04-26 06:10:00,
2013-04-26 02:13:00,39.3,32.7,30.28,NW,317,3.0,4.0,77,0.00,,OVC030,0.00,VWS V14.01,2013-04-26 06:13:00,
2013-04-26 02:18:00,39.3,32.7,30.28,NW,317,3.0,3.0,77,0.00,,OVC030,0.00,VWS V14.01,2013-04-26 06:18:00,
2013-04-26 02:20:00,39.3,32.7,30.28,NW,317,2.0,4.0,77,0.00,,,0.00,VWS V14.01,2013-04-26 06:20:00,
2013-04-26 02:23:00,39.2,32.6,30.28,NW,317,4.0,4.0,77,0.00,,OVC030,0.00,VWS V14.01,2013-04-26 06:23:00,
2013-04-26 02:28:00,39.2,32.6,30.28,NW,317,1.0,2.0,77,0.00,,OVC030,0.00,VWS V14.01,2013-04-26 06:28:00,
2013-04-26 02:30:00,39.2,32.6,30.28,NW,314,4.0,4.0,77,0.00,,,0.00,VWS V14.01,2013-04-26 06:30:00,
2013-04-26 02:33:00,39.2,32.6,30.28,NW,317,2.0,4.0,77,0.00,,OVC030,0.00,VWS V14.01,2013-04-26 06:33:00,
2013-04-26 02:38:00,39.2,32.3,30.28,NW,319,5.0,5.0,76,0.00,,OVC030,0.00,VWS V14.01,2013-04-26 06:38:00,
2013-04-26 02:40:00,39.2,32.3,30.28,NW,307,2.0,5.0,76,0.00,,,0.00,VWS V14.01,2013-04-26 06:40:00,
2013-04-26 02:43:00,39.3,32.4,30.28,NW,307,1.0,5.0,76,0.00,,OVC030,0.00,VWS V14.01,2013-04-26 06:43:00,
2013-04-26 02:48:00,39.2,32.3,30.28,NW,307,4.0,4.0,76,0.00,,OVC030,0.00,VWS V14.01,2013-04-26 06:48:00,
2013-04-26 02:50:00,38.9,32.0,30.28,NW,307,1.0,4.0,76,0.00,,,0.00,VWS V14.01,2013-04-26 06:50:00,
2013-04-26 02:53:00,39.1,32.2,30.28,NW,307,2.0,4.0,76,0.00,,OVC030,0.00,VWS V14.01,2013-04-26 06:53:00,
2013-04-26 02:58:00,38.9,32.0,30.28,NW,307,2.0,2.0,76,0.00,,OVC030,0.00,VWS V14.01,2013-04-26 06:58:00,
2013-04-26 03:00:00,38.3,32.4,30.28,NW,307,1.0,3.0,79,0.00,,,0.00,VWS V14.01,2013-04-26 07:00:00,
2013-04-26 03:03:00,38.5,31.9,30.28,NW,307,2.0,3.0,77,0.00,,OVC041,0.00,VWS V14.01,2013-04-26 07:03:00,
2013-04-26 03:08:00,38.3,32.4,30.28,NW,307,1.0,1.0,79,0.00,,OVC041,0.00,VWS V14.01,2013-04-26 07:08:00,
2013-04-26 03:10:00,38.0,32.4,30.28,NW,307,2.0,3.0,80,0.00,,,0.00,VWS V14.01,2013-04-26 07:10:00,
2013-04-26 03:13:00,38.0,32.4,30.28,NW,307,2.0,2.0,80,0.00,,OVC041,0.00,VWS V14.01,2013-04-26 07:13:00,
2013-04-26 03:18:00,38.0,32.4,30.28,NW,307,2.0,3.0,80,0.00,,OVC041,0.00,VWS V14.01,2013-04-26 07:18:00,
2013-04-26 03:20:00,37.9,32.6,30.28,NW,307,1.0,3.0,81,0.00,,,0.00,VWS V14.01,2013-04-26 07:20:00,
2013-04-26 03:23:00,38.0,32.4,30.28,NW,307,1.0,3.0,80,0.00,,OVC041,0.00,VWS V14.01,2013-04-26 07:23:00,
2013-04-26 03:28:00,37.9,32.6,30.28,NW,307,1.0,2.0,81,0.00,,OVC041,0.00,VWS V14.01,2013-04-26 07:28:00,
2013-04-26 03:30:00,37.7,32.4,30.28,NW,307,2.0,3.0,81,0.00,,,0.00,VWS V14.01,2013-04-26 07:30:00,
2013-04-26 03:33:00,37.7,32.4,30.28,NW,307,3.0,3.0,81,0.00,,OVC041,0.00,VWS V14.01,2013-04-26 07:33:00,
2013-04-26 03:38:00,37.7,32.4,30.28,NW,307,2.0,3.0,81,0.00,,OVC041,0.00,VWS V14.01,2013-04-26 07:38:00,
2013-04-26 03:40:00,37.2,31.9,30.28,NW,307,0.0,3.0,81,0.00,,,0.00,VWS V14.01,2013-04-26 07:40:00,
2013-04-26 03:43:00,37.3,31.7,30.28,NW,307,0.0,3.0,80,0.00,,OVC041,0.00,VWS V14.01,2013-04-26 07:43:00,
2013-04-26 03:48:00,37.1,31.8,30.28,NW,307,1.0,2.0,81,0.00,,OVC041,0.00,VWS V14.01,2013-04-26 07:48:00,
2013-04-26 03:50:00,36.8,31.8,30.30,NW,307,3.0,3.0,82,0.00,,,0.00,VWS V14.01,2013-04-26 07:50:00,
2013-04-26 03:53:00,36.9,31.6,30.30,NW,307,1.0,3.0,81,0.00,,OVC041,0.00,VWS V14.01,2013-04-26 07:53:00,
2013-04-26 03:58:00,36.8,31.8,30.30,NW,307,2.0,3.0,82,0.00,,OVC041,0.00,VWS V14.01,2013-04-26 07:58:00,
2013-04-26 04:00:00,36.9,31.9,30.30,NW,307,0.0,3.0,82,0.00,,,0.00,VWS V14.01,2013-04-26 08:00:00,
2013-04-26 04:03:00,36.8,31.8,30.30,NW,307,1.0,3.0,82,0.00,,OVC070,0.00,VWS V14.01,2013-04-26 08:03:00,
2013-04-26 04:08:00,36.9,31.9,30.30,NW,307,0.0,0.0,82,0.00,,OVC070,0.00,VWS V14.01,2013-04-26 08:08:00,
2013-04-26 04:10:00,37.2,32.2,30.30,NW,307,2.0,3.0,82,0.00,,,0.00,VWS V14.01,2013-04-26 08:10:00,
2013-04-26 04:13:00,37.0,32.0,30.30,NW,307,0.0,1.0,82,0.00,,OVC070,0.00,VWS V14.01,2013-04-26 08:13:00,
2013-04-26 04:18:00,37.3,32.3,30.30,NW,307,2.0,2.0,82,0.00,,OVC070,0.00,VWS V14.01,2013-04-26 08:18:00,
2013-04-26 04:20:00,37.1,31.8,30.30,NW,307,1.0,3.0,81,0.00,,,0.00,VWS V14.01,2013-04-26 08:20:00,
2013-04-26 04:23:00,37.4,32.4,30.30,NW,307,1.0,3.0,82,0.00,,OVC070,0.00,VWS V14.01,2013-04-26 08:23:00,
2013-04-26 04:28:00,37.1,31.8,30.30,NW,307,0.0,1.0,81,0.00,,OVC070,0.00,VWS V14.01,2013-04-26 08:28:00,
2013-04-26 04:30:00,36.5,31.5,30.31,NW,307,1.0,3.0,82,0.00,,,0.00,VWS V14.01,2013-04-26 08:30:00,
2013-04-26 04:33:00,36.8,31.8,30.30,NW,307,1.0,2.0,82,0.00,,OVC070,0.00,VWS V14.01,2013-04-26 08:33:00,
2013-04-26 04:38:00,36.5,31.5,30.31,NW,307,2.0,4.0,82,0.00,,OVC070,0.00,VWS V14.01,2013-04-26 08:38:00,
2013-04-26 04:40:00,36.3,31.6,30.31,NW,307,1.0,4.0,83,0.00,,,0.00,VWS V14.01,2013-04-26 08:40:00,
2013-04-26 04:43:00,36.3,31.6,30.31,NW,307,2.0,4.0,83,0.00,,OVC070,0.00,VWS V14.01,2013-04-26 08:43:00,
2013-04-26 04:48:00,36.4,31.7,30.31,NW,307,1.0,2.0,83,0.00,,OVC070,0.00,VWS V14.01,2013-04-26 08:48:00,
2013-04-26 04:50:00,36.4,31.7,30.31,NW,307,0.0,2.0,83,0.00,,,0.00,VWS V14.01,2013-04-26 08:50:00,
2013-04-26 04:53:00,36.4,31.7,30.31,NW,307,1.0,2.0,83,0.00,,OVC070,0.00,VWS V14.01,2013-04-26 08:53:00,
2013-04-26 04:58:00,36.4,31.7,30.31,NW,307,0.0,1.0,83,0.00,,OVC070,0.00,VWS V14.01,2013-04-26 08:58:00,
2013-04-26 05:00:00,36.2,31.5,30.31,NW,307,1.0,3.0,83,0.00,,,0.00,VWS V14.01,2013-04-26 09:00:00,
2013-04-26 05:03:00,36.3,31.6,30.31,NW,307,2.0,2.0,83,0.00,,BKN065,0.00,VWS V14.01,2013-04-26 09:03:00,
2013-04-26 05:08:00,36.2,31.5,30.31,NW,307,2.0,3.0,83,0.00,,BKN065,0.00,VWS V14.01,2013-04-26 09:08:00,
2013-04-26 05:10:00,36.1,31.7,30.31,NW,307,1.0,3.0,84,0.00,,,0.00,VWS V14.01,2013-04-26 09:10:00,
2013-04-26 05:13:00,36.1,31.5,30.31,NW,307,3.0,3.0,83,0.00,,BKN065,0.00,VWS V14.01,2013-04-26 09:13:00,
2013-04-26 05:18:00,36.0,31.6,30.31,NW,307,2.0,2.0,84,0.00,,BKN065,0.00,VWS V14.01,2013-04-26 09:18:00,
2013-04-26 05:20:00,35.8,31.5,30.31,NW,307,0.0,2.0,84,0.00,,,0.00,VWS V14.01,2013-04-26 09:20:00,
2013-04-26 05:23:00,35.9,31.5,30.31,NW,307,0.0,2.0,84,0.00,,BKN065,0.00,VWS V14.01,2013-04-26 09:23:00,
2013-04-26 05:28:00,35.7,31.4,30.31,NW,307,0.0,0.0,84,0.00,,BKN065,0.00,VWS V14.01,2013-04-26 09:28:00,
2013-04-26 05:30:00,35.5,31.1,30.32,NW,307,0.0,2.0,84,0.00,,,0.00,VWS V14.01,2013-04-26 09:30:00,
2013-04-26 05:33:00,35.6,31.2,30.31,NW,307,1.0,2.0,84,0.00,,BKN065,0.00,VWS V14.01,2013-04-26 09:33:00,
2013-04-26 05:38:00,35.5,31.1,30.32,NW,307,0.0,0.0,84,0.00,,BKN065,0.00,VWS V14.01,2013-04-26 09:38:00,
2013-04-26 05:40:00,35.2,30.9,30.32,NW,307,1.0,3.0,84,0.00,,,0.00,VWS V14.01,2013-04-26 09:40:00,
2013-04-26 05:43:00,35.3,31.0,30.32,NW,307,2.0,2.0,84,0.00,,BKN065,0.00,VWS V14.01,2013-04-26 09:43:00,
2013-04-26 05:48:00,35.2,30.9,30.32,NW,307,0.0,1.0,84,0.00,,BKN065,0.00,VWS V14.01,2013-04-26 09:48:00,
2013-04-26 05:50:00,34.8,30.8,30.32,NW,307,0.0,1.0,85,0.00,,,0.00,VWS V14.01,2013-04-26 09:50:00,
2013-04-26 05:53:00,35.0,31.0,30.32,NW,307,0.0,1.0,85,0.00,,BKN065,0.00,VWS V14.01,2013-04-26 09:53:00,
2013-04-26 05:58:00,34.8,30.8,30.32,NW,307,0.0,1.0,85,0.00,,BKN065,0.00,VWS V14.01,2013-04-26 09:58:00,
2013-04-26 06:00:00,34.4,30.4,30.33,NW,307,0.0,2.0,85,0.00,,,0.00,VWS V14.01,2013-04-26 10:00:00,
2013-04-26 06:03:00,34.7,30.7,30.32,NW,307,2.0,2.0,85,0.00,,BKN060,0.00,VWS V14.01,2013-04-26 10:03:00,
2013-04-26 06:08:00,34.4,30.6,30.33,NW,307,2.0,2.0,86,0.00,,BKN060,0.00,VWS V14.01,2013-04-26 10:08:00,
2013-04-26 06:10:00,34.2,30.5,30.33,NW,307,0.0,2.0,86,0.00,,,0.00,VWS V14.01,2013-04-26 10:10:00,
2013-04-26 06:13:00,34.2,30.5,30.33,NW,307,0.0,2.0,86,0.00,,BKN060,0.00,VWS V14.01,2013-04-26 10:13:00,
2013-04-26 06:18:00,34.1,30.4,30.33,NW,307,0.0,0.0,86,0.00,,BKN060,0.00,VWS V14.01,2013-04-26 10:18:00,
2013-04-26 06:20:00,33.6,30.1,30.34,NW,307,0.0,1.0,87,0.00,,,0.00,VWS V14.01,2013-04-26 10:20:00,
2013-04-26 06:23:00,33.7,30.0,30.34,NW,307,0.0,1.0,86,0.00,,BKN060,0.00,VWS V14.01,2013-04-26 10:23:00,
2013-04-26 06:28:00,33.6,30.1,30.34,NW,307,0.0,0.0,87,0.00,,BKN060,0.00,VWS V14.01,2013-04-26 10:28:00,
2013-04-26 06:30:00,33.5,30.0,30.34,NW,307,0.0,0.0,87,0.00,,,0.00,VWS V14.01,2013-04-26 10:30:00,
2013-04-26 06:33:00,33.5,30.0,30.34,NW,307,0.0,0.0,87,0.00,,BKN060,0.00,VWS V14.01,2013-04-26 10:33:00,
2013-04-26 06:38:00,33.4,30.0,30.34,NW,307,0.0,0.0,87,0.00,,BKN060,0.00,VWS V14.01,2013-04-26 10:38:00,
2013-04-26 06:40:00,33.5,30.3,30.34,NW,307,0.0,1.0,88,0.00,,,0.00,VWS V14.01,2013-04-26 10:40:00,
2013-04-26 06:43:00,33.5,30.0,30.34,NW,307,0.0,1.0,87,0.00,,BKN060,0.00,VWS V14.01,2013-04-26 10:43:00,
2013-04-26 06:49:00,33.5,30.3,30.34,NW,307,0.0,0.0,88,0.00,,BKN060,0.00,VWS V14.01,2013-04-26 10:49:00,
2013-04-26 06:50:00,33.8,30.6,30.36,NW,307,1.0,2.0,88,0.00,,,0.00,VWS V14.01,2013-04-26 10:50:00,
2013-04-26 06:54:00,33.7,30.5,30.36,NW,307,0.0,2.0,88,0.00,,BKN060,0.00,VWS V14.01,2013-04-26 10:54:00,
2013-04-26 06:59:00,33.8,30.6,30.36,NW,307,1.0,2.0,88,0.00,,BKN060,0.00,VWS V14.01,2013-04-26 10:59:00,
2013-04-26 07:00:00,33.7,30.5,30.36,NW,307,2.0,3.0,88,0.00,,,0.00,VWS V14.01,2013-04-26 11:00:00,
2013-04-26 07:04:00,33.7,30.5,30.36,NW,307,1.0,2.0,88,0.00,,CLR,0.00,VWS V14.01,2013-04-26 11:04:00,
2013-04-26 07:09:00,33.7,30.5,30.36,NW,307,0.0,2.0,88,0.00,,CLR,0.00,VWS V14.01,2013-04-26 11:09:00,
2013-04-26 07:10:00,33.9,31.0,30.36,NW,307,1.0,2.0,89,0.00,,,0.00,VWS V14.01,2013-04-26 11:10:00,
2013-04-26 07:14:00,33.8,30.9,30.36,NW,307,0.0,2.0,89,0.00,,CLR,0.00,VWS V14.01,2013-04-26 11:14:00,
2013-04-26 07:19:00,33.9,31.0,30.36,NW,307,2.0,2.0,89,0.00,,CLR,0.00,VWS V14.01,2013-04-26 11:19:00,
2013-04-26 07:20:00,34.3,31.4,30.37,NW,307,0.0,2.0,89,0.00,,,0.00,VWS V14.01,2013-04-26 11:20:00,
2013-04-26 07:24:00,34.1,31.2,30.37,NW,307,0.0,2.0,89,0.00,,CLR,0.00,VWS V14.01,2013-04-26 11:24:00,
2013-04-26 07:29:00,34.4,31.5,30.37,NW,307,1.0,1.0,89,0.00,,CLR,0.00,VWS V14.01,2013-04-26 11:29:00,
2013-04-26 07:30:00,34.8,31.9,30.37,NW,307,2.0,2.0,89,0.00,,,0.00,VWS V14.01,2013-04-26 11:30:00,
2013-04-26 07:34:00,34.6,31.7,30.37,NW,307,0.0,2.0,89,0.00,,CLR,0.00,VWS V14.01,2013-04-26 11:34:00,
2013-04-26 07:39:00,34.9,32.0,30.37,NW,307,1.0,2.0,89,0.00,,CLR,0.00,VWS V14.01,2013-04-26 11:39:00,
2013-04-26 07:40:00,35.6,32.7,30.37,NW,307,0.0,2.0,89,0.00,,,0.00,VWS V14.01,2013-04-26 11:40:00,
2013-04-26 07:44:00,35.4,32.5,30.37,NW,307,0.0,2.0,89,0.00,,CLR,0.00,VWS V14.01,2013-04-26 11:44:00,
2013-04-26 07:49:00,35.7,32.8,30.37,NW,307,0.0,0.0,89,0.00,,CLR,0.00,VWS V14.01,2013-04-26 11:49:00,
2013-04-26 07:50:00,37.3,34.4,30.37,North,11,0.0,5.0,89,0.00,,,0.00,VWS V14.01,2013-04-26 11:50:00,
2013-04-26 07:54:00,36.3,33.4,30.37,NW,307,1.0,2.0,89,0.00,,CLR,0.00,VWS V14.01,2013-04-26 11:54:00,
2013-04-26 07:59:00,37.8,34.9,30.37,NE,36,0.0,1.0,89,0.00,,CLR,0.00,VWS V14.01,2013-04-26 11:59:00,
2013-04-26 08:00:00,39.5,36.0,30.37,NE,36,0.0,1.0,87,0.00,,,0.00,VWS V14.01,2013-04-26 12:00:00,
2013-04-26 08:04:00,39.1,35.8,30.37,NE,36,0.0,1.0,88,0.00,,CLR,0.00,VWS V14.01,2013-04-26 12:04:00,
2013-04-26 08:09:00,39.7,35.9,30.37,NE,36,0.0,0.0,86,0.00,,CLR,0.00,VWS V14.01,2013-04-26 12:09:00,
2013-04-26 08:10:00,40.9,36.1,30.37,SE,130,3.0,4.0,83,0.00,,,0.00,VWS V14.01,2013-04-26 12:10:00,
2013-04-26 08:14:00,40.6,36.5,30.37,East,84,0.0,3.0,85,0.00,,CLR,0.00,VWS V14.01,2013-04-26 12:14:00,
2013-04-26 08:19:00,41.1,36.0,30.37,ESE,120,2.0,6.0,82,0.00,,CLR,0.00,VWS V14.01,2013-04-26 12:19:00,
2013-04-26 08:20:00,42.1,36.1,30.38,East,87,1.0,9.0,79,0.00,,,0.00,VWS V14.01,2013-04-26 12:20:00,
2013-04-26 08:24:00,41.7,36.0,30.38,ESE,113,3.0,6.0,80,0.00,,CLR,0.00,VWS V14.01,2013-04-26 12:24:00,
2013-04-26 08:29:00,42.4,36.4,30.38,East,90,1.0,3.0,79,0.00,,CLR,0.00,VWS V14.01,2013-04-26 12:29:00,
2013-04-26 08:30:00,43.0,36.3,30.38,East,99,3.0,7.0,77,0.00,,,0.00,VWS V14.01,2013-04-26 12:30:00,
2013-04-26 08:34:00,42.9,36.2,30.38,East,95,4.0,6.0,77,0.00,,CLR,0.00,VWS V14.01,2013-04-26 12:34:00,
2013-04-26 08:39:00,43.1,36.1,30.38,ESE,111,4.0,7.0,76,0.00,,CLR,0.00,VWS V14.01,2013-04-26 12:39:00,
2013-04-26 08:40:00,44.0,36.9,30.38,ESE,116,4.0,7.0,76,0.00,,,0.00,VWS V14.01,2013-04-26 12:40:00,
2013-04-26 08:44:00,43.3,36.3,30.38,East,85,0.0,7.0,76,0.00,,CLR,0.00,VWS V14.01,2013-04-26 12:44:00,
2013-04-26 08:49:00,44.1,37.0,30.38,SE,140,4.0,6.0,76,0.00,,CLR,0.00,VWS V14.01,2013-04-26 12:49:00,
2013-04-26 08:50:00,43.6,35.5,30.37,ESE,110,9.0,10.0,73,0.00,,,0.00,VWS V14.01,2013-04-26 12:50:00,
2013-04-26 08:54:00,44.3,36.9,30.37,ENE,59,1.0,7.0,75,0.00,,CLR,0.00,VWS V14.01,2013-04-26 12:54:00,
2013-04-26 08:59:00,43.0,35.0,30.37,ESE,107,10.0,10.0,73,0.00,,CLR,0.00,VWS V14.01,2013-04-26 12:59:00,
2013-04-26 09:00:00,43.5,35.1,30.38,ESE,110,4.0,10.0,72,0.00,,,0.00,VWS V14.01,2013-04-26 13:00:00,
2013-04-26 09:04:00,43.4,36.7,30.37,SE,133,4.0,10.0,77,0.00,,CLR,0.00,VWS V14.01,2013-04-26 13:04:00,
2013-04-26 09:09:00,43.2,35.1,30.38,SE,127,2.0,7.0,73,0.00,,CLR,0.00,VWS V14.01,2013-04-26 13:09:00,
2013-04-26 09:10:00,43.6,34.8,30.38,SE,139,7.0,9.0,71,0.00,,,0.00,VWS V14.01,2013-04-26 13:10:00,
2013-04-26 09:14:00,43.9,35.8,30.38,SE,129,4.0,9.0,73,0.00,,CLR,0.00,VWS V14.01,2013-04-26 13:14:00,
2013-04-26 09:19:00,43.5,34.7,30.38,ESE,118,3.0,7.0,71,0.00,,CLR,0.00,VWS V14.01,2013-04-26 13:19:00,
2013-04-26 09:20:00,43.2,33.7,30.39,SSE,152,2.0,11.0,69,0.00,,,0.00,VWS V14.01,2013-04-26 13:20:00,
2013-04-26 09:24:00,43.8,34.7,30.39,SE,131,7.0,10.0,70,0.00,,CLR,0.00,VWS V14.01,2013-04-26 13:24:00,
2013-04-26 09:29:00,43.7,35.6,30.39,South,173,5.0,7.0,73,0.00,,CLR,0.00,VWS V14.01,2013-04-26 13:29:00,
2013-04-26 09:30:00,44.4,35.6,30.39,East,94,3.0,7.0,71,0.00,,,0.00,VWS V14.01,2013-04-26 13:30:00,
2013-04-26 09:34:00,43.4,33.9,30.39,ESE,108,0.0,7.0,69,0.00,,CLR,0.00,VWS V14.01,2013-04-26 13:34:00,
2013-04-26 09:39:00,44.8,36.0,30.39,East,90,0.0,5.0,71,0.00,,CLR,0.00,VWS V14.01,2013-04-26 13:39:00,
2013-04-26 09:40:00,45.2,34.9,30.39,ESE,111,2.0,11.0,67,0.00,,,0.00,VWS V14.01,2013-04-26 13:40:00,
2013-04-26 09:44:00,44.9,34.6,30.39,SE,133,5.0,11.0,67,0.00,,CLR,0.00,VWS V14.01,2013-04-26 13:44:00,
2013-04-26 09:49:00,45.4,35.1,30.39,ESE,106,5.0,5.0,67,0.00,,CLR,0.00,VWS V14.01,2013-04-26 13:49:00,
2013-04-26 09:50:00,43.7,33.5,30.38,ESE,113,0.0,11.0,67,0.00,,,0.00,VWS V14.01,2013-04-26 13:50:00,
2013-04-26 09:54:00,43.5,32.9,30.38,ESE,110,2.0,11.0,66,0.00,,CLR,0.00,VWS V14.01,2013-04-26 13:54:00,
2013-04-26 09:59:00,44.3,34.4,30.38,SE,137,5.0,7.0,68,0.00,,CLR,0.00,VWS V14.01,2013-04-26 13:59:00,
2013-04-26 10:00:00,44.6,33.6,30.39,SE,134,4.0,9.0,65,0.00,,,0.00,VWS V14.01,2013-04-26 14:00:00,
2013-04-26 10:04:00,44.4,33.4,30.38,South,175,2.0,7.0,65,0.00,,FEW018,0.00,VWS V14.01,2013-04-26 14:04:00,
2013-04-26 10:09:00,45.0,34.0,30.39,SE,134,4.0,7.0,65,0.00,,FEW018,0.00,VWS V14.01,2013-04-26 14:09:00,
2013-04-26 10:10:00,46.0,34.1,30.39,NNE,32,2.0,7.0,63,0.00,,,0.00,VWS V14.01,2013-04-26 14:10:00,
2013-04-26 10:14:00,46.1,35.4,30.39,East,92,3.0,7.0,66,0.00,,FEW018,0.00,VWS V14.01,2013-04-26 14:14:00,
2013-04-26 10:19:00,45.8,33.5,30.39,NNW,344,2.0,3.0,62,0.00,,FEW018,0.00,VWS V14.01,2013-04-26 14:19:00,
2013-04-26 10:20:00,45.4,32.3,30.39,North,355,0.0,7.0,60,0.00,,,0.00,VWS V14.01,2013-04-26 14:20:00,
2013-04-26 10:24:00,45.8,35.5,30.39,NE,55,0.0,7.0,67,0.00,,FEW018,0.00,VWS V14.01,2013-04-26 14:24:00,
2013-04-26 10:29:00,45.5,34.0,30.39,East,86,1.0,3.0,64,0.00,,FEW018,0.00,VWS V14.01,2013-04-26 14:29:00,
2013-04-26 10:30:00,45.2,33.0,30.39,ESE,115,4.0,9.0,62,0.00,,,0.00,VWS V14.01,2013-04-26 14:30:00,
2013-04-26 10:34:00,45.6,32.9,30.39,East,88,3.0,9.0,61,0.00,,FEW018,0.00,VWS V14.01,2013-04-26 14:34:00,
2013-04-26 10:39:00,46.0,34.9,30.39,NNE,17,3.0,4.0,65,0.00,,FEW018,0.00,VWS V14.01,2013-04-26 14:39:00,
2013-04-26 10:40:00,46.4,33.3,30.39,East,91,3.0,7.0,60,0.00,,,0.00,VWS V14.01,2013-04-26 14:40:00,
2013-04-26 10:44:00,46.4,33.7,30.39,East,98,3.0,6.0,61,0.00,,FEW018,0.00,VWS V14.01,2013-04-26 14:44:00,
2013-04-26 10:49:00,46.0,32.5,30.39,South,174,0.0,7.0,59,0.00,,FEW018,0.00,VWS V14.01,2013-04-26 14:49:00,
2013-04-26 10:50:00,46.6,33.9,30.39,SE,125,3.0,11.0,61,0.00,,,0.00,VWS V14.01,2013-04-26 14:50:00,
2013-04-26 10:54:00,46.0,32.9,30.39,ESE,109,4.0,7.0,60,0.00,,FEW018,0.00,VWS V14.01,2013-04-26 14:54:00,
2013-04-26 10:59:00,46.9,34.2,30.39,ESE,117,3.0,6.0,61,0.00,,FEW018,0.00,VWS V14.01,2013-04-26 14:59:00,
2013-04-26 11:00:00,46.8,32.8,30.39,SE,140,3.0,9.0,58,0.00,,,0.00,VWS V14.01,2013-04-26 15:00:00,
2013-04-26 11:04:00,47.2,33.2,30.39,SE,142,1.0,7.0,58,0.00,,FEW028,0.00,VWS V14.01,2013-04-26 15:04:00,
2013-04-26 11:09:00,46.9,33.3,30.39,SSE,157,3.0,6.0,59,0.00,,FEW028,0.00,VWS V14.01,2013-04-26 15:09:00,
2013-04-26 11:10:00,46.1,32.2,30.39,SE,145,0.0,7.0,58,0.00,,,0.00,VWS V14.01,2013-04-26 15:10:00,
2013-04-26 11:14:00,46.6,33.5,30.39,SW,229,3.0,7.0,60,0.00,,FEW028,0.00,VWS V14.01,2013-04-26 15:14:00,
2013-04-26 11:19:00,46.3,32.8,30.39,West,276,0.0,5.0,59,0.00,,FEW028,0.00,VWS V14.01,2013-04-26 15:19:00,
2013-04-26 11:20:00,45.9,32.8,30.40,West,267,2.0,7.0,60,0.00,,,0.00,VWS V14.01,2013-04-26 15:20:00,
2013-04-26 11:24:00,46.1,33.4,30.40,South,183,6.0,6.0,61,0.00,,FEW028,0.00,VWS V14.01,2013-04-26 15:24:00,
2013-04-26 11:29:00,46.3,34.0,30.40,West,267,0.0,2.0,62,0.00,,FEW028,0.00,VWS V14.01,2013-04-26 15:29:00,
2013-04-26 11:30:00,47.6,34.8,30.40,SSE,153,3.0,7.0,61,0.00,,,0.00,VWS V14.01,2013-04-26 15:30:00,
2013-04-26 11:34:00,47.1,33.9,30.40,WSW,238,7.0,7.0,60,0.00,,FEW028,0.00,VWS V14.01,2013-04-26 15:34:00,
2013-04-26 11:39:00,47.5,33.0,30.40,SSW,201,3.0,4.0,57,0.00,,FEW028,0.00,VWS V14.01,2013-04-26 15:39:00,
2013-04-26 11:40:00,47.9,34.7,30.40,SSE,158,2.0,7.0,60,0.00,,,0.00,VWS V14.01,2013-04-26 15:40:00,
2013-04-26 11:45:00,47.6,33.1,30.40,SE,140,0.0,7.0,57,0.00,,FEW028,0.00,VWS V14.01,2013-04-26 15:45:00,
2013-04-26 11:50:00,47.4,31.6,30.40,South,187,1.0,4.0,54,0.00,,FEW028,0.00,VWS V14.01,2013-04-26 15:50:00,
2013-04-26 11:55:00,48.1,34.0,30.39,West,278,3.0,4.0,58,0.00,,FEW028,0.00,VWS V14.01,2013-04-26 15:55:00,
2013-04-26 12:00:00,48.2,31.9,30.39,SE,128,0.0,6.0,53,0.00,,FEW028,0.00,VWS V14.01,2013-04-26 16:00:00,
2013-04-26 12:05:00,48.0,32.2,30.39,SE,138,2.0,10.0,54,0.00,,CLR,0.00,VWS V14.01,2013-04-26 16:05:00,
2013-04-26 12:10:00,49.0,33.1,30.39,SSW,201,5.0,5.0,54,0.00,,CLR,0.00,VWS V14.01,2013-04-26 16:10:00,
2013-04-26 12:15:00,50.2,34.2,30.39,SSE,150,4.0,11.0,54,0.00,,CLR,0.00,VWS V14.01,2013-04-26 16:15:00,
2013-04-26 12:20:00,50.0,34.5,30.39,SE,146,4.0,7.0,55,0.00,,CLR,0.00,VWS V14.01,2013-04-26 16:20:00,
2013-04-26 12:25:00,49.4,33.9,30.39,East,90,0.0,9.0,55,0.00,,CLR,0.00,VWS V14.01,2013-04-26 16:25:00,
2013-04-26 12:30:00,49.0,31.2,30.39,East,96,3.0,5.0,50,0.00,,CLR,0.00,VWS V14.01,2013-04-26 16:30:00,
2013-04-26 12:35:00,49.3,31.0,30.39,ESE,119,0.0,9.0,49,0.00,,CLR,0.00,VWS V14.01,2013-04-26 16:35:00,
2013-04-26 12:40:00,48.7,29.9,30.39,SW,219,0.0,5.0,48,0.00,,CLR,0.00,VWS V14.01,2013-04-26 16:40:00,
2013-04-26 12:45:00,49.6,34.1,30.39,ENE,72,2.0,5.0,55,0.00,,CLR,0.00,VWS V14.01,2013-04-26 16:45:00,
2013-04-26 12:50:00,49.6,31.2,30.39,SE,143,3.0,7.0,49,0.00,,CLR,0.00,VWS V14.01,2013-04-26 16:50:00,
2013-04-26 12:55:00,49.9,31.5,30.38,SSW,196,5.0,7.0,49,0.00,,CLR,0.00,VWS V14.01,2013-04-26 16:55:00,
2013-04-26 13:00:00,50.3,31.4,30.38,SSE,157,3.0,12.0,48,0.00,,CLR,0.00,VWS V14.01,2013-04-26 17:00:00,
2013-04-26 13:05:00,49.7,32.8,30.38,SE,133,2.0,12.0,52,0.00,,CLR,0.00,VWS V14.01,2013-04-26 17:05:00,
2013-04-26 13:10:00,50.8,32.3,30.38,ENE,75,3.0,5.0,49,0.00,,CLR,0.00,VWS V14.01,2013-04-26 17:10:00,
2013-04-26 13:15:00,50.3,30.9,30.38,WSW,246,2.0,10.0,47,0.00,,CLR,0.00,VWS V14.01,2013-04-26 17:15:00,
2013-04-26 13:20:00,51.0,34.5,30.38,NW,326,2.0,3.0,53,0.00,,CLR,0.00,VWS V14.01,2013-04-26 17:20:00,
2013-04-26 13:25:00,51.5,32.0,30.37,SE,136,2.0,5.0,47,0.00,,CLR,0.00,VWS V14.01,2013-04-26 17:25:00,
2013-04-26 13:30:00,51.3,31.2,30.37,SSE,152,0.0,6.0,46,0.00,,CLR,0.00,VWS V14.01,2013-04-26 17:30:00,
2013-04-26 13:35:00,51.2,31.1,30.37,NW,321,3.0,14.0,46,0.00,,CLR,0.00,VWS V14.01,2013-04-26 17:35:00,
2013-04-26 13:40:00,51.9,32.8,30.36,East,99,1.0,6.0,48,0.00,,CLR,0.00,VWS V14.01,2013-04-26 17:40:00,
2013-04-26 13:45:00,52.8,36.6,30.36,SSW,200,0.0,7.0,54,0.00,,CLR,0.00,VWS V14.01,2013-04-26 17:45:00,
2013-04-26 13:50:00,52.3,32.7,30.36,WSW,245,6.0,7.0,47,0.00,,CLR,0.00,VWS V14.01,2013-04-26 17:50:00,
2013-04-26 13:55:00,51.8,33.3,30.35,South,180,2.0,7.0,49,0.00,,CLR,0.00,VWS V14.01,2013-04-26 17:55:00,
2013-04-26 14:00:00,52.9,33.8,30.35,East,101,3.0,6.0,48,0.00,,CLR,0.00,VWS V14.01,2013-04-26 18:00:00,
2013-04-26 14:05:00,54.4,35.1,30.35,ESE,117,9.0,9.0,48,0.00,,CLR,0.00,VWS V14.01,2013-04-26 18:05:00,
2013-04-26 14:10:00,53.9,34.7,30.34,East,94,0.0,6.0,48,0.00,,CLR,0.00,VWS V14.01,2013-04-26 18:10:00,
2013-04-26 14:15:00,53.9,35.7,30.34,SSW,204,3.0,6.0,50,0.00,,CLR,0.00,VWS V14.01,2013-04-26 18:15:00,
2013-04-26 14:20:00,53.4,32.0,30.34,SSE,160,4.0,10.0,44,0.00,,CLR,0.00,VWS V14.01,2013-04-26 18:20:00,
2013-04-26 14:25:00,53.3,31.4,30.35,ESE,114,1.0,10.0,43,0.00,,CLR,0.00,VWS V14.01,2013-04-26 18:25:00,
2013-04-26 14:30:00,54.2,31.6,30.35,SE,132,1.0,5.0,42,0.00,,CLR,0.00,VWS V14.01,2013-04-26 18:30:00,
2013-04-26 14:35:00,53.7,32.3,30.35,WSW,247,3.0,8.0,44,0.00,,CLR,0.00,VWS V14.01,2013-04-26 18:35:00,
2013-04-26 14:40:00,54.5,32.5,30.34,NNE,17,4.0,5.0,43,0.00,,CLR,0.00,VWS V14.01,2013-04-26 18:40:00,
2013-04-26 14:45:00,54.6,30.2,30.34,North,350,1.0,7.0,39,0.00,,CLR,0.00,VWS V14.01,2013-04-26 18:45:00,
2013-04-26 14:50:00,54.1,30.9,30.34,NW,323,6.0,9.0,41,0.00,,CLR,0.00,VWS V14.01,2013-04-26 18:50:00,
2013-04-26 14:55:00,54.3,32.9,30.34,NNW,327,3.0,9.0,44,0.00,,CLR,0.00,VWS V14.01,2013-04-26 18:55:00,
2013-04-26 15:00:00,54.6,30.8,30.34,WSW,252,2.0,5.0,40,0.00,,CLR,0.00,VWS V14.01,2013-04-26 19:00:00,
2013-04-26 15:05:00,55.2,29.4,30.34,SW,227,4.0,5.0,37,0.00,,CLR,0.00,VWS V14.01,2013-04-26 19:05:00,
2013-04-26 15:10:00,54.7,27.6,30.34,WSW,244,7.0,14.0,35,0.00,,CLR,0.00,VWS V14.01,2013-04-26 19:10:00,
2013-04-26 15:15:00,55.0,28.6,30.34,WNW,291,7.0,14.0,36,0.00,,CLR,0.00,VWS V14.01,2013-04-26 19:15:00,
2013-04-26 15:20:00,54.6,28.2,30.34,NW,325,13.0,14.0,36,0.00,,CLR,0.00,VWS V14.01,2013-04-26 19:20:00,
2013-04-26 15:25:00,54.3,26.5,30.34,NNW,336,6.0,16.0,34,0.00,,CLR,0.00,VWS V14.01,2013-04-26 19:25:00,
2013-04-26 15:30:00,55.2,28.7,30.34,WNW,302,6.0,17.0,36,0.00,,CLR,0.00,VWS V14.01,2013-04-26 19:30:00,
2013-04-26 15:35:00,55.7,28.5,30.34,WNW,293,7.0,17.0,35,0.00,,CLR,0.00,VWS V14.01,2013-04-26 19:35:00,
2013-04-26 15:40:00,54.8,27.7,30.34,WSW,257,10.0,15.0,35,0.00,,CLR,0.00,VWS V14.01,2013-04-26 19:40:00,
2013-04-26 15:45:00,54.8,30.3,30.34,North,355,7.0,17.0,39,0.00,,CLR,0.00,VWS V14.01,2013-04-26 19:45:00,
2013-04-26 15:50:00,54.8,29.0,30.34,NNW,347,7.0,14.0,37,0.00,,CLR,0.00,VWS V14.01,2013-04-26 19:50:00,
2013-04-26 15:55:00,54.5,29.4,30.33,NW,325,5.0,14.0,38,0.00,,CLR,0.00,VWS V14.01,2013-04-26 19:55:00,
2013-04-26 16:00:00,55.3,30.8,30.33,NW,307,9.0,13.0,39,0.00,,CLR,0.00,VWS V14.01,2013-04-26 20:00:00,
2013-04-26 16:05:00,55.9,31.3,30.33,NNW,327,9.0,13.0,39,0.00,,CLR,0.00,VWS V14.01,2013-04-26 20:05:00,
2013-04-26 16:10:00,56.0,30.8,30.32,NNW,346,9.0,10.0,38,0.00,,CLR,0.00,VWS V14.01,2013-04-26 20:10:00,
2013-04-26 16:15:00,55.5,29.7,30.32,NW,313,12.0,16.0,37,0.00,,CLR,0.00,VWS V14.01,2013-04-26 20:15:00,
2013-04-26 16:20:00,55.1,28.6,30.32,NNW,330,4.0,15.0,36,0.00,,CLR,0.00,VWS V14.01,2013-04-26 20:20:00,
2013-04-26 16:25:00,55.8,30.6,30.33,NW,305,13.0,15.0,38,0.00,,CLR,0.00,VWS V14.01,2013-04-26 20:25:00,
2013-04-26 16:30:00,55.2,30.7,30.33,NW,306,10.0,15.0,39,0.00,,CLR,0.00,VWS V14.01,2013-04-26 20:30:00,
2013-04-26 16:36:00,55.4,30.9,30.33,WNW,295,10.0,16.0,39,0.00,,CLR,0.00,VWS V14.01,2013-04-26 20:36:00,
2013-04-26 16:40:00,54.8,29.7,30.33,NW,317,11.0,15.0,38,0.00,,,0.00,VWS V14.01,2013-04-26 20:40:00,
2013-04-26 16:41:00,55.5,30.3,30.33,WNW,293,13.0,15.0,38,0.00,,CLR,0.00,VWS V14.01,2013-04-26 20:41:00,
2013-04-26 16:46:00,54.7,29.0,30.33,WNW,301,10.0,15.0,37,0.00,,CLR,0.00,VWS V14.01,2013-04-26 20:46:00,
2013-04-26 16:50:00,54.8,30.3,30.32,West,269,4.0,16.0,39,0.00,,,0.00,VWS V14.01,2013-04-26 20:50:00,
2013-04-26 16:51:00,54.7,29.6,30.33,NW,316,13.0,16.0,38,0.00,,CLR,0.00,VWS V14.01,2013-04-26 20:51:00,
2013-04-26 16:56:00,54.6,29.5,30.32,NNW,344,6.0,16.0,38,0.00,,CLR,0.00,VWS V14.01,2013-04-26 20:56:00,
2013-04-26 17:00:00,54.9,31.0,30.31,ENE,63,2.0,15.0,40,0.00,,,0.00,VWS V14.01,2013-04-26 21:00:00,
2013-04-26 17:01:00,55.4,30.9,30.32,NNW,333,11.0,15.0,39,0.00,,CLR,0.00,VWS V14.01,2013-04-26 21:01:00,
2013-04-26 17:06:00,55.0,29.9,30.32,NNW,344,11.0,15.0,38,0.00,,CLR,0.00,VWS V14.01,2013-04-26 21:06:00,
2013-04-26 17:10:00,55.4,29.6,30.31,WNW,302,9.0,16.0,37,0.00,,,0.00,VWS V14.01,2013-04-26 21:10:00,
2013-04-26 17:11:00,55.3,30.1,30.31,NW,325,10.0,15.0,38,0.00,,CLR,0.00,VWS V14.01,2013-04-26 21:11:00,
2013-04-26 17:16:00,55.5,30.3,30.31,WNW,300,11.0,15.0,38,0.00,,CLR,0.00,VWS V14.01,2013-04-26 21:16:00,
2013-04-26 17:20:00,54.9,27.8,30.32,NNW,340,10.0,12.0,35,0.00,,,0.00,VWS V14.01,2013-04-26 21:20:00,
2013-04-26 17:21:00,55.3,28.8,30.31,NNW,327,9.0,12.0,36,0.00,,CLR,0.00,VWS V14.01,2013-04-26 21:21:00,
2013-04-26 17:26:00,55.0,28.6,30.32,WNW,302,6.0,12.0,36,0.00,,CLR,0.00,VWS V14.01,2013-04-26 21:26:00,
2013-04-26 17:30:00,55.7,29.9,30.31,NW,313,0.0,12.0,37,0.00,,,0.00,VWS V14.01,2013-04-26 21:30:00,
2013-04-26 17:31:00,55.1,29.3,30.32,West,267,5.0,11.0,37,0.00,,CLR,0.00,VWS V14.01,2013-04-26 21:31:00,
2013-04-26 17:36:00,55.6,29.1,30.32,NW,324,3.0,12.0,36,0.00,,CLR,0.00,VWS V14.01,2013-04-26 21:36:00,
2013-04-26 17:40:00,55.8,27.9,30.31,West,268,10.0,13.0,34,0.00,,,0.00,VWS V14.01,2013-04-26 21:40:00,
2013-04-26 17:41:00,55.7,27.8,30.31,NW,308,11.0,13.0,34,0.00,,CLR,0.00,VWS V14.01,2013-04-26 21:41:00,
2013-04-26 17:46:00,55.8,27.9,30.31,NW,319,6.0,13.0,34,0.00,,CLR,0.00,VWS V14.01,2013-04-26 21:46:00,
2013-04-26 17:50:00,55.6,27.7,30.32,NW,325,5.0,13.0,34,0.00,,,0.00,VWS V14.01,2013-04-26 21:50:00,
2013-04-26 17:51:00,55.4,26.8,30.31,WNW,288,6.0,11.0,33,0.00,,CLR,0.00,VWS V14.01,2013-04-26 21:51:00,
2013-04-26 17:56:00,55.6,27.7,30.32,NW,325,6.0,13.0,34,0.00,,CLR,0.00,VWS V14.01,2013-04-26 21:56:00,
2013-04-26 18:00:00,55.4,26.8,30.32,NW,304,6.0,13.0,33,0.00,,,0.00,VWS V14.01,2013-04-26 22:00:00,
2013-04-26 18:01:00,55.5,26.9,30.32,NW,326,4.0,12.0,33,0.00,,CLR,0.00,VWS V14.01,2013-04-26 22:01:00,
2013-04-26 18:06:00,55.4,26.8,30.32,NW,322,5.0,13.0,33,0.00,,CLR,0.00,VWS V14.01,2013-04-26 22:06:00,
2013-04-26 18:10:00,55.5,26.1,30.32,NW,304,4.0,10.0,32,0.00,,,0.00,VWS V14.01,2013-04-26 22:10:00,
2013-04-26 18:11:00,55.5,26.9,30.32,NNW,346,7.0,9.0,33,0.00,,CLR,0.00,VWS V14.01,2013-04-26 22:11:00,
2013-04-26 18:16:00,55.5,26.9,30.32,WNW,282,4.0,10.0,33,0.00,,CLR,0.00,VWS V14.01,2013-04-26 22:16:00,
2013-04-26 18:20:00,55.3,27.4,30.32,NNW,344,11.0,13.0,34,0.00,,,0.00,VWS V14.01,2013-04-26 22:20:00,
2013-04-26 18:21:00,55.2,25.9,30.32,NW,325,2.0,10.0,32,0.00,,CLR,0.00,VWS V14.01,2013-04-26 22:21:00,
2013-04-26 18:26:00,55.3,26.7,30.32,NNW,344,5.0,11.0,33,0.00,,CLR,0.00,VWS V14.01,2013-04-26 22:26:00,
2013-04-26 18:30:00,54.8,27.0,30.33,NNW,345,5.0,14.0,34,0.00,,,0.00,VWS V14.01,2013-04-26 22:30:00,
2013-04-26 18:31:00,55.0,27.2,30.32,NNW,344,10.0,14.0,34,0.00,,CLR,0.00,VWS V14.01,2013-04-26 22:31:00,
2013-04-26 18:36:00,54.8,26.3,30.32,WNW,284,6.0,14.0,33,0.00,,CLR,0.00,VWS V14.01,2013-04-26 22:36:00,
2013-04-26 18:40:00,54.8,27.7,30.33,NNW,346,8.0,11.0,35,0.00,,,0.00,VWS V14.01,2013-04-26 22:40:00,
2013-04-26 18:41:00,55.0,27.2,30.33,NNE,18,3.0,9.0,34,0.00,,CLR,0.00,VWS V14.01,2013-04-26 22:41:00,
2013-04-26 18:46:00,54.8,27.0,30.33,NW,325,3.0,9.0,34,0.00,,CLR,0.00,VWS V14.01,2013-04-26 22:46:00,
2013-04-26 18:50:00,54.7,26.9,30.33,NNW,342,2.0,10.0,34,0.00,,,0.00,VWS V14.01,2013-04-26 22:50:00,
2013-04-26 18:51:00,54.9,27.8,30.33,NNE,13,8.0,10.0,35,0.00,,CLR,0.00,VWS V14.01,2013-04-26 22:51:00,
2013-04-26 18:56:00,54.8,26.3,30.33,NNW,340,5.0,10.0,33,0.00,,CLR,0.00,VWS V14.01,2013-04-26 22:56:00,
2013-04-26 19:00:00,54.6,27.5,30.33,NNW,329,4.0,9.0,35,0.00,,,0.00,VWS V14.01,2013-04-26 23:00:00,
2013-04-26 19:01:00,54.7,26.9,30.33,NW,322,6.0,9.0,34,0.00,,CLR,0.00,VWS V14.01,2013-04-26 23:01:00,
2013-04-26 19:06:00,54.6,28.2,30.33,NNW,346,4.0,9.0,36,0.00,,CLR,0.00,VWS V14.01,2013-04-26 23:06:00,
2013-04-26 19:10:00,54.1,27.1,30.33,WNW,298,5.0,9.0,35,0.00,,,0.00,VWS V14.01,2013-04-26 23:10:00,
2013-04-26 19:11:00,54.4,27.3,30.33,North,360,3.0,8.0,35,0.00,,CLR,0.00,VWS V14.01,2013-04-26 23:11:00,
2013-04-26 19:16:00,54.2,27.2,30.33,WNW,295,9.0,9.0,35,0.00,,CLR,0.00,VWS V14.01,2013-04-26 23:16:00,
2013-04-26 19:20:00,53.7,27.4,30.32,NNE,30,6.0,9.0,36,0.00,,,0.00,VWS V14.01,2013-04-26 23:20:00,
2013-04-26 19:21:00,53.9,27.6,30.33,WNW,302,4.0,9.0,36,0.00,,CLR,0.00,VWS V14.01,2013-04-26 23:21:00,
2013-04-26 19:26:00,53.8,27.5,30.32,North,360,8.0,9.0,36,0.00,,CLR,0.00,VWS V14.01,2013-04-26 23:26:00,
2013-04-26 19:30:00,53.3,27.7,30.32,North,355,2.0,9.0,37,0.00,,,0.00,VWS V14.01,2013-04-26 23:30:00,
2013-04-26 19:31:00,53.5,27.2,30.32,NNW,344,6.0,7.0,36,0.00,,CLR,0.00,VWS V14.01,2013-04-26 23:31:00,
2013-04-26 19:36:00,53.3,27.7,30.32,North,355,2.0,9.0,37,0.00,,CLR,0.00,VWS V14.01,2013-04-26 23:36:00,
2013-04-26 19:40:00,52.7,27.8,30.32,NNW,348,4.0,5.0,38,0.00,,,0.00,VWS V14.01,2013-04-26 23:40:00,
2013-04-26 19:41:00,53.2,27.6,30.32,NNE,19,2.0,5.0,37,0.00,,CLR,0.00,VWS V14.01,2013-04-26 23:41:00,
2013-04-26 19:46:00,52.8,27.9,30.32,North,355,3.0,5.0,38,0.00,,CLR,0.00,VWS V14.01,2013-04-26 23:46:00,
2013-04-26 19:50:00,51.9,27.7,30.33,North,355,3.0,5.0,39,0.00,,,0.00,VWS V14.01,2013-04-26 23:50:00,
2013-04-26 19:51:00,52.3,27.5,30.32,North,349,4.0,5.0,38,0.00,,CLR,0.00,VWS V14.01,2013-04-26 23:51:00,
2013-04-26 20:00:00,51.4,27.3,30.33,NNW,344,1.0,6.0,39,0.00,,,0.00,VWS V14.01,2013-04-27 00:00:00,
2013-04-26 20:05:00,51.5,28.0,30.33,North,355,2.0,6.0,40,0.00,,CLR,0.00,VWS V14.01,2013-04-27 00:05:00,
2013-04-26 20:10:00,51.1,27.6,30.33,NNW,339,3.0,5.0,40,0.00,,CLR,0.00,VWS V14.01,2013-04-27 00:10:00,
2013-04-26 20:15:00,50.6,27.8,30.33,NW,326,5.0,5.0,41,0.00,,CLR,0.00,VWS V14.01,2013-04-27 00:15:00,
2013-04-26 20:20:00,50.5,27.7,30.33,NNW,341,1.0,4.0,41,0.00,,CLR,0.00,VWS V14.01,2013-04-27 00:20:00,
2013-04-26 20:25:00,50.3,28.1,30.33,NNW,342,2.0,4.0,42,0.00,,CLR,0.00,VWS V14.01,2013-04-27 00:25:00,
2013-04-26 20:30:00,50.0,27.8,30.33,NNW,341,3.0,4.0,42,0.00,,CLR,0.00,VWS V14.01,2013-04-27 00:30:00,
2013-04-26 20:35:00,49.8,27.6,30.33,NNW,342,0.0,4.0,42,0.00,,CLR,0.00,VWS V14.01,2013-04-27 00:35:00,
2013-04-26 20:40:00,49.6,27.5,30.33,NNW,342,1.0,2.0,42,0.00,,CLR,0.00,VWS V14.01,2013-04-27 00:40:00,
2013-04-26 20:45:00,49.1,27.6,30.33,NNW,341,1.0,2.0,43,0.00,,CLR,0.00,VWS V14.01,2013-04-27 00:45:00,
2013-04-26 20:50:00,48.4,28.0,30.33,NNW,342,1.0,2.0,45,0.00,,CLR,0.00,VWS V14.01,2013-04-27 00:50:00,
2013-04-26 20:56:00,48.1,27.8,30.34,NNW,342,1.0,3.0,45,0.00,,CLR,0.00,VWS V14.01,2013-04-27 00:56:00,
2013-04-26 21:00:00,47.6,28.4,30.34,NNW,342,0.0,2.0,47,0.00,,,0.00,VWS V14.01,2013-04-27 01:00:00,
2013-04-26 21:01:00,47.8,28.0,30.34,NNW,341,1.0,2.0,46,0.00,,CLR,0.00,VWS V14.01,2013-04-27 01:01:00,
2013-04-26 21:06:00,47.7,28.0,30.34,NNW,342,0.0,2.0,46,0.00,,CLR,0.00,VWS V14.01,2013-04-27 01:06:00,
2013-04-26 21:10:00,46.4,28.3,30.34,NNW,336,1.0,2.0,49,0.00,,,0.00,VWS V14.01,2013-04-27 01:10:00,
2013-04-26 21:11:00,47.1,27.9,30.34,NNW,341,0.0,0.0,47,0.00,,CLR,0.00,VWS V14.01,2013-04-27 01:11:00,
2013-04-26 21:16:00,46.6,28.5,30.34,NNW,342,1.0,1.0,49,0.00,,CLR,0.00,VWS V14.01,2013-04-27 01:16:00,
2013-04-26 21:20:00,45.5,28.4,30.35,NNW,336,1.0,2.0,51,0.00,,,0.00,VWS V14.01,2013-04-27 01:20:00,
2013-04-26 21:21:00,46.0,28.4,30.34,NNW,336,0.0,2.0,50,0.00,,CLR,0.00,VWS V14.01,2013-04-27 01:21:00,
2013-04-26 21:26:00,45.6,28.5,30.35,NNW,336,0.0,2.0,51,0.00,,CLR,0.00,VWS V14.01,2013-04-27 01:26:00,
2013-04-26 21:30:00,45.1,28.5,30.35,NNW,336,0.0,1.0,52,0.00,,,0.00,VWS V14.01,2013-04-27 01:30:00,
2013-04-26 21:31:00,45.4,28.8,30.35,NNW,336,0.0,1.0,52,0.00,,CLR,0.00,VWS V14.01,2013-04-27 01:31:00,
2013-04-26 21:36:00,45.2,28.6,30.35,NNW,336,0.0,1.0,52,0.00,,CLR,0.00,VWS V14.01,2013-04-27 01:36:00,
2013-04-26 21:40:00,45.4,28.8,30.35,NNW,336,2.0,2.0,52,0.00,,,0.00,VWS V14.01,2013-04-27 01:40:00,
2013-04-26 21:41:00,45.0,28.5,30.35,NNW,336,0.0,1.0,52,0.00,,CLR,0.00,VWS V14.01,2013-04-27 01:41:00,
2013-04-26 21:46:00,45.5,28.9,30.35,NNW,336,2.0,2.0,52,0.00,,CLR,0.00,VWS V14.01,2013-04-27 01:46:00,
2013-04-26 21:50:00,44.7,29.1,30.36,NE,38,0.0,2.0,54,0.00,,,0.00,VWS V14.01,2013-04-27 01:50:00,
2013-04-26 21:51:00,45.3,28.7,30.35,NNW,336,0.0,2.0,52,0.00,,CLR,0.00,VWS V14.01,2013-04-27 01:51:00,
2013-04-26 21:56:00,45.0,28.5,30.36,NE,38,0.0,2.0,52,0.00,,CLR,0.00,VWS V14.01,2013-04-27 01:56:00,
2013-04-26 22:00:00,43.9,28.8,30.37,NE,38,0.0,1.0,55,0.00,,,0.00,VWS V14.01,2013-04-27 02:00:00,
2013-04-26 22:01:00,44.0,28.9,30.36,NE,39,0.0,1.0,55,0.00,,CLR,0.00,VWS V14.01,2013-04-27 02:01:00,
2013-04-26 22:06:00,44.0,28.9,30.36,NE,38,0.0,1.0,55,0.00,,CLR,0.00,VWS V14.01,2013-04-27 02:06:00,
2013-04-26 22:10:00,43.8,29.1,30.37,NE,38,0.0,0.0,56,0.00,,,0.00,VWS V14.01,2013-04-27 02:10:00,
2013-04-26 22:11:00,43.9,28.4,30.37,NE,38,0.0,0.0,54,0.00,,CLR,0.00,VWS V14.01,2013-04-27 02:11:00,
2013-04-26 22:16:00,43.9,28.8,30.37,NE,38,0.0,0.0,55,0.00,,CLR,0.00,VWS V14.01,2013-04-27 02:16:00,
2013-04-26 22:20:00,43.6,29.4,30.36,NE,38,1.0,2.0,57,0.00,,,0.00,VWS V14.01,2013-04-27 02:20:00,
2013-04-26 22:21:00,43.7,29.5,30.37,NE,38,0.0,0.0,57,0.00,,CLR,0.00,VWS V14.01,2013-04-27 02:21:00,
2013-04-26 22:26:00,43.6,29.4,30.36,NE,38,2.0,2.0,57,0.00,,CLR,0.00,VWS V14.01,2013-04-27 02:26:00,
2013-04-26 22:30:00,43.5,28.9,30.36,NE,38,0.0,2.0,56,0.00,,,0.00,VWS V14.01,2013-04-27 02:30:00,
2013-04-26 22:31:00,43.6,29.0,30.36,NE,38,0.0,2.0,56,0.00,,CLR,0.00,VWS V14.01,2013-04-27 02:31:00,
2013-04-26 22:36:00,43.5,28.9,30.36,NE,38,0.0,2.0,56,0.00,,CLR,0.00,VWS V14.01,2013-04-27 02:36:00,
2013-04-26 22:40:00,43.2,28.6,30.36,NE,38,0.0,0.0,56,0.00,,,0.00,VWS V14.01,2013-04-27 02:40:00,
2013-04-26 22:41:00,43.4,28.3,30.36,NE,38,0.0,0.0,55,0.00,,CLR,0.00,VWS V14.01,2013-04-27 02:41:00,
2013-04-26 22:46:00,43.2,28.1,30.36,NE,38,0.0,0.0,55,0.00,,CLR,0.00,VWS V14.01,2013-04-27 02:46:00,
2013-04-26 22:50:00,42.3,28.6,30.36,NE,38,0.0,0.0,58,0.00,,,0.00,VWS V14.01,2013-04-27 02:50:00,
2013-04-26 22:51:00,42.8,28.6,30.36,NE,38,0.0,0.0,57,0.00,,CLR,0.00,VWS V14.01,2013-04-27 02:51:00,
2013-04-26 22:56:00,42.4,28.7,30.36,NE,38,0.0,0.0,58,0.00,,CLR,0.00,VWS V14.01,2013-04-27 02:56:00,
2013-04-26 23:00:00,41.5,28.7,30.36,NE,38,0.0,1.0,60,0.00,,,0.00,VWS V14.01,2013-04-27 03:00:00,
2013-04-26 23:01:00,41.9,29.5,30.36,NE,38,1.0,1.0,61,0.00,,CLR,0.00,VWS V14.01,2013-04-27 03:01:00,
2013-04-26 23:06:00,41.5,28.7,30.36,NE,38,0.0,1.0,60,0.00,,CLR,0.00,VWS V14.01,2013-04-27 03:06:00,
2013-04-26 23:10:00,41.4,28.2,30.36,NE,38,0.0,0.0,59,0.00,,,0.00,VWS V14.01,2013-04-27 03:10:00,
2013-04-26 23:11:00,41.5,28.7,30.36,NE,38,0.0,0.0,60,0.00,,CLR,0.00,VWS V14.01,2013-04-27 03:11:00,
2013-04-26 23:16:00,41.4,28.2,30.36,NE,38,0.0,0.0,59,0.00,,CLR,0.00,VWS V14.01,2013-04-27 03:16:00,
2013-04-26 23:20:00,41.2,28.4,30.36,NE,38,0.0,1.0,60,0.00,,,0.00,VWS V14.01,2013-04-27 03:20:00,
2013-04-26 23:21:00,41.4,28.2,30.36,NE,38,0.0,1.0,59,0.00,,CLR,0.00,VWS V14.01,2013-04-27 03:21:00,
2013-04-26 23:26:00,41.2,28.4,30.36,NE,38,0.0,1.0,60,0.00,,CLR,0.00,VWS V14.01,2013-04-27 03:26:00,
2013-04-26 23:30:00,40.7,28.3,30.36,NE,38,0.0,0.0,61,0.00,,,0.00,VWS V14.01,2013-04-27 03:30:00,
2013-04-26 23:31:00,41.0,28.6,30.36,NE,38,0.0,0.0,61,0.00,,CLR,0.00,VWS V14.01,2013-04-27 03:31:00,
2013-04-26 23:36:00,40.8,28.0,30.36,NE,38,0.0,0.0,60,0.00,,CLR,0.00,VWS V14.01,2013-04-27 03:36:00,
2013-04-26 23:40:00,39.7,28.1,30.36,NE,39,0.0,2.0,63,0.00,,,0.00,VWS V14.01,2013-04-27 03:40:00,
2013-04-26 23:41:00,40.5,28.1,30.36,NE,38,0.0,0.0,61,0.00,,CLR,0.00,VWS V14.01,2013-04-27 03:41:00,
2013-04-26 23:46:00,39.8,27.9,30.36,NE,38,0.0,2.0,62,0.00,,CLR,0.00,VWS V14.01,2013-04-27 03:46:00,
2013-04-26 23:50:00,38.9,28.1,30.36,NE,38,0.0,1.0,65,0.00,,,0.00,VWS V14.01,2013-04-27 03:50:00,
2013-04-26 23:51:00,39.4,28.2,30.36,NE,38,0.0,1.0,64,0.00,,CLR,0.00,VWS V14.01,2013-04-27 03:51:00,
2013-04-26 23:56:00,39.0,28.2,30.36,NE,39,0.0,1.0,65,0.00,,CLR,0.00,VWS V14.01,2013-04-27 03:56:00,